Location: Basin
(44.3800°N, 108.0380°W)
Time: 20:08:27
(UTC-06:00)

ISS - Visible Passes

Search period start: 22 March 2019 00:00
Search period end: 01 April 2019 00:00
Orbit: 406 x 411 km, 51.6° (Epoch: 23 March)

Date Brightness Start Highest point End Pass type
(mag) Time Alt. Az. Time Alt. Az. Time Alt. Az.
22 Mar -3.1 20:19:27 10° SSW 20:22:30 35° SE 20:24:41 16° E visible
22 Mar -1.4 21:55:53 10° W 21:57:27 23° WNW 21:57:27 23° WNW visible
23 Mar -3.4 21:04:38 10° WSW 21:07:53 60° NNW 21:09:02 35° NE visible
24 Mar -3.9 20:13:30 10° SW 20:16:48 83° SSE 20:20:07 10° ENE visible
24 Mar -1.7 21:50:46 10° WNW 21:53:11 26° NNW 21:53:11 26° NNW visible
25 Mar -2.4 20:59:21 10° W 21:02:25 35° NNW 21:04:26 18° NE visible
25 Mar -0.3 22:36:56 10° NW 22:37:11 11° NW 22:37:11 11° NW visible
26 Mar -2.9 20:08:00 10° W 20:11:13 49° NNW 20:14:26 10° NE visible
26 Mar -1.7 21:45:36 10° WNW 21:48:18 23° N 21:48:18 23° N visible
27 Mar -1.9 20:54:11 10° WNW 20:57:00 25° N 20:59:21 13° NE visible
27 Mar -0.5 22:31:28 10° NW 22:32:05 14° NW 22:32:05 14° NW visible
28 Mar -2.1 20:02:43 10° W 20:05:43 30° NNW 20:08:42 10° NE visible
28 Mar -1.8 21:40:14 10° NW 21:42:56 23° N 21:43:03 23° N visible
29 Mar -1.7 20:48:55 10° NW 20:51:35 22° N 20:53:58 12° NE visible
29 Mar -0.8 22:25:44 10° NW 22:26:42 17° NW 22:26:42 17° NW visible
30 Mar -2.2 21:34:37 10° NW 21:37:30 27° NNE 21:37:35 27° NNE visible
31 Mar -1.9 20:43:24 10° NW 20:46:09 23° N 20:48:27 12° ENE visible
31 Mar -1.2 22:19:55 10° NW 22:21:10 21° NW 22:21:10 21° NW visible
